Showing default

ERNST, 60528

Orbit data source: Space-Track

ERNST, 60528 is a German payload satellite in SSO that was launched on Fri, 16 Aug 2024 UTC via an FALCON 9 launch vehicle from the Air Force Western Test Range (AFWTR). Payload-class satellites include a variety of spacecraft equipped with specific instruments for various scientific and technological missions. These include communications satellites like Starlink; space stations such as the ISS; scientific satellites like the Hubble; Earth observation satellites from companies like Planet Labs, Umbra, and HawkEye 360; GPS; miniature CubeSats for education and research; and military/defense satellites.

Loading next visibility...
Identifier
60528, 2024-149BN
Orbit
SSO
Country
Flag of DEDE / GER
Related business
Manufacturer
FRAUN
Mission
Operational Amateur Technology
Bus & Motor
CUBESAT 12U, Unknown motor
Mass
20 kg wet, 20 kg dry
Launch date (UTC)
2024-08-16 (1 year ago)
Launch vehicle
FALCON 9
Launch site
Air Force Western Test Range (AFWTR)
Object type
Payload
Rocket body
Debris
Shape & HBR
Box + 1 Sail, 0.8 m
Radar Cross Section
0.110 m², Small (<0.1 m²)

Expand to show TLE details & history
Last TLE update: 6 hours ago

TLE from 6 hours ago
0 ERNST
1 60528U 24149BN  26035.19085598  .00016993  00000-0  49813-3 0  9998
2 60528  97.3903 118.2539 0007505  60.6384 299.5608 15.35236330 81848
Epoch: 2026-02-04T04:34Z
TLE epoch observation values (Epoch: 2026-02-04T04:34:49.956Z)
Latitude
-0.00005°
Longitude
-84.81523°
Altitude
460.8 km
Speed
7.638 km/s
True Right ascension
07h 53m 00s
True Declination
0° 00' 00"
Sunlit
Object was in full shadow at epoch
Visualization orbit readout
Latitude
Unknown
Longitude
Unknown
Altitude
Unknown
Speed
Unknown
Apparent Right ascension
Unknown
Apparent Declination
Unknown
Sunlit
N/A
Visualization observer readout
Local Sidereal Time
12:24:09
Azimuth
Unknown
Elevation
Unknown
Doppler factor
Unknown
Orbital elements
Apogee altitude
462.293 km
Perigee altitude
452.034 km
Semi-major axis
6,835.3 km
Eccentricity
0.00075
Inclination
97.3903°
RAAN
118.2539°
Arg. of periapsis
60.6384°
True anomaly
299.48596°
Mean anomaly
299.5608°
Eccentric anomaly
299.52338°
Mean motion
3.84067 °/min
Orbital period
93.73 mins
BSTAR
0.00049813
Loading maneuver chart data...
Computing Atmospheric mass density...
Loading historical data...
Loading historical data...
Loading historical data...
Loading historical data...
Loading historical data...
Loading historical data...
Loading historical data...

Documentation

Showing up to 5 results
|